[[{"header":{"parameterUnit":"m.s-1","parameterCategory":1,"la1":30.2991,"la2":30.254,"lo1":-89.0895,"lo2":-89.0444,"dy":0.0017,"dx":0.0017,"nx":28,"ny":28,"refTime":"2023-03-21T21:00:00:Z","depth":0,"parameterNumber":2,"parameterNumberName":"U-component_of_WINDS"},"data":[0,0,0,0,0,0,0,0,0,0,0,0,0,0,0,0,0,0,0,0,0,0,0,0,0,0,0,0,0,0,0,0,0,0,0,0,0,0,0,0,0,0,0,0,0,0,0,0,0,0,0,0,0,0,0,0,0,0,-2.2854,-2.2854,0,-2.2901,-2.2902,-2.2902,-2.2904,-2.2904,-2.2903,-2.2903,-2.2951,-2.2953,-2.2955,0,0,0,0,0,0,0,0,0,0,0,0,0,-2.2765,-2.2767,-2.2854,-2.2854,-2.2855,-2.2901,-2.2902,-2.2903,-2.2904,-2.2904,-2.2903,-2.2902,-2.295,-2.2953,-2.2955,0,0,0,0,0,0,0,0,0,0,0,0,0,-2.2807,-2.2767,-2.2853,-2.2861,-2.2862,-2.2901,-2.2902,-2.2903,-2.2905,-2.2904,-2.2903,-2.2902,-2.295,-2.2952,-2.2955,-2.2989,0,0,-2.2963,-2.2965,0,0,0,0,0,0,0,0,-2.2805,-2.281,-2.286,-2.2861,-2.2862,-2.2896,-2.2889,-2.2932,-2.2905,-2.2889,-2.2903,-2.2902,-2.2933,-2.2937,-2.2948,-2.2991,-2.2993,-2.2964,-2.2965,-2.2967,-2.2967,0,0,0,0,0,0,0,-2.2802,-2.2808,-2.2872,-2.286,-2.2862,-2.2863,-2.2868,-2.2897,-2.2915,-2.289,-2.289,-2.2896,-2.2934,-2.2946,-2.2949,-2.2994,-2.2964,-2.2966,-2.2968,-2.2969,-2.3069,-2.307,0,0,0,0,0,0,-2.2797,-2.2806,-2.2871,-2.2874,-2.2831,-2.2865,-2.2871,-2.2886,-2.2915,-2.2918,-2.2896,-2.2896,-2.2941,-2.2946,-2.2951,-2.2993,-2.2967,-2.2969,-2.2971,-2.3068,-2.307,-2.3071,0,0,0,0,0,0,-2.2795,-2.2803,-2.2869,-2.284,-2.2849,-2.2868,-2.2885,-2.2887,-2.2899,-2.292,-2.2923,-2.2905,-2.2941,-2.2947,-2.298,-2.2995,-2.297,-2.2973,-2.3067,-2.3069,-2.307,-2.3078,0,0,0,0,0,0,-2.2793,-2.2802,-2.2815,-2.284,-2.285,-2.2897,-2.2886,-2.2889,-2.2904,-2.2903,-2.2929,-2.2932,-2.2941,-2.2976,-2.2983,-2.2998,-2.2975,-2.3066,-2.3068,-2.307,-2.3076,-2.3079,-2.3082,0,0,0,0,0,-2.279,-2.2815,-2.2816,-2.2823,-2.2866,-2.2898,-2.2903,-2.2913,-2.2905,-2.2918,-2.2932,-2.2931,-2.2993,-2.2979,-2.2987,-2.3004,-2.3065,-2.3067,-2.3069,-2.3075,-2.3079,-2.3082,0,0,0,0,0,0,-2.279,-2.2818,-2.2819,-2.2853,-2.2873,-2.2898,-2.2914,-2.2916,-2.2938,-2.2937,-2.2948,-2.2954,-2.2986,-2.2999,-2.2983,-2.3039,-2.3028,-2.3032,-2.3029,-2.3033,-2.3036,-2.3032,-2.2977,0,0,0,0,0,-2.2794,-2.2817,-2.2841,-2.2869,-2.2879,-2.2895,-2.2909,-2.2915,-2.2936,-2.2944,-2.296,-2.298,-2.3004,-2.302,-2.3043,-2.3079,-2.3085,-2.3094,-2.3097,-2.3099,-2.3102,-2.3123,-2.3128,-2.3078,-2.3078,-2.3078,0,0,-2.2803,-2.2821,-2.2835,-2.2869,-2.2885,-2.2909,-2.2902,-2.2927,-2.2945,-2.2948,-2.298,-2.2992,-2.3016,-2.3051,-2.3067,-2.3062,-2.3118,-2.3102,-2.3104,-2.3106,-2.3126,-2.3131,-2.3135,-2.308,-2.308,-2.3079,0,0,-2.2831,-2.2847,-2.2872,-2.2889,-2.2913,-2.2925,-2.2931,-2.2956,-2.2964,-2.2997,-2.3,-2.3022,-2.3063,-2.308,-2.3094,-2.3131,-2.3131,-2.3138,-2.3153,-2.3173,-2.3177,-2.318,-2.3194,-2.3198,-2.3141,-2.3141,-2.3141,0,-2.2838,-2.2874,-2.2885,-2.2911,-2.2926,-2.2931,-2.2957,-2.2973,-2.3003,-2.3014,-2.3008,-2.3061,-2.3077,-2.3116,-2.3126,-2.3137,-2.3145,-2.3134,-2.3175,-2.3179,-2.3182,-2.3195,-2.32,-2.3142,-2.3142,-2.3142,-2.3142,0,-2.2882,-2.2907,-2.2925,-2.2955,-2.2973,-2.2999,-2.3014,-2.3031,-2.3036,-2.3048,-2.3082,-2.3102,-2.313,-2.314,-2.3145,-2.318,-2.3176,-2.3173,-2.3162,-2.3188,-2.32,-2.3205,-2.3143,-2.3142,-2.3142,-2.3142,0,0,-2.2909,-2.2947,-2.2953,-2.2968,-2.2996,-2.3016,-2.3043,-2.3071,-2.3085,-2.3107,-2.313,-2.3166,-2.3163,-2.3179,-2.3186,-2.3204,-2.3233,-2.3199,-2.32,-2.3204,-2.3274,-2.3276,-2.3281,-2.3234,-2.3235,-2.3236,-2.3272,0,-2.294,-2.2987,-2.2999,-2.3039,-2.3063,-2.3069,-2.3093,-2.3113,-2.3126,-2.3148,-2.3162,-2.3188,-2.3182,-2.3192,-2.321,-2.3225,-2.3247,-2.3223,-2.3256,-2.3257,-2.3248,-2.3288,-2.3289,-2.3322,-2.3277,-2.3278,-2.3278,0,-2.2981,-2.3005,-2.3048,-2.3075,-2.3085,-2.3106,-2.3133,-2.3155,-2.3179,-2.3187,-2.3206,-2.3212,-2.3241,-2.3229,-2.327,-2.3253,-2.3268,-2.3278,-2.3279,-2.3282,-2.3268,-2.3291,-2.3333,-2.3338,-2.3286,-2.3285,-2.3285,0,-2.2997,-2.3039,-2.3071,-2.3083,-2.3115,-2.313,-2.3144,-2.3167,-2.3184,-2.3208,-2.3219,-2.3246,-2.3261,-2.3282,-2.3296,-2.3286,-2.3335,-2.3325,-2.3343,-2.3342,-2.3352,-2.3351,-2.3396,-2.3362,-2.3362,-2.3362,-2.3362,0,-2.3029,-2.3055,-2.3078,-2.3097,-2.3127,-2.3142,-2.3171,-2.3185,-2.3206,-2.3229,-2.3236,-2.3258,-2.3275,-2.3299,-2.331,-2.3342,-2.3348,-2.3356,-2.3358,-2.3355,-2.3354,-2.3363,-2.3361,-2.3363,-2.3363,-2.3363,-2.3363,0,-2.305,-2.3067,-2.3102,-2.313,-2.3138,-2.3159,-2.3184,-2.3203,-2.3217,-2.3245,-2.3253,-2.3275,-2.3303,-2.3319,-2.3355,-2.3363,-2.3399,-2.34,-2.339,-2.3391,-2.3408,-2.3406,-2.3461,-2.3469,-2.343,-2.343,-2.3431,0,-2.3069,-2.309,-2.3121,-2.3137,-2.3151,-2.3177,-2.3194,-2.321,-2.3227,-2.3257,-2.3273,-2.3303,-2.3327,-2.3373,-2.3392,-2.3419,-2.3422,-2.3439,-2.3426,-2.3422,-2.3422,-2.342,-2.3422,-2.3441,-2.3441,-2.3441,-2.3441,0,-2.3102,-2.3109,-2.3134,-2.3162,-2.3182,-2.3205,-2.3228,-2.324,-2.326,-2.328,-2.3309,-2.3328,-2.3366,-2.3395,-2.3425,-2.344,-2.3444,-2.3446,-2.3451,-2.3447,-2.3441,-2.3445,-2.3396,-2.3444,-2.3444,-2.3444,-2.3443,-2.3443,-2.3122,-2.3141,-2.3166,-2.3194,-2.3213,-2.3234,-2.3254,-2.3271,-2.3296,-2.3328,-2.3336,-2.3367,-2.3393,-2.3433,-2.345,-2.3475,-2.3472,-2.348,-2.3482,-2.3483,-2.3484,-2.3438,-2.348,-2.348,-2.348,-2.348,-2.348,0,-2.3155,-2.3172,-2.3197,-2.3229,-2.3251,-2.3254,-2.328,-2.3298,-2.3326,-2.3349,-2.3373,-2.3408,-2.3437,-2.3459,-2.3489,-2.3505,-2.3508,-2.3512,-2.3511,-2.3514,-2.3485,-2.3477,-2.3509,-2.3509,-2.3509,-2.3509,-2.3509,-2.3509,-2.3174,-2.3206,-2.3217,-2.326,-2.3277,-2.3308,-2.3322,-2.3342,-2.3361,-2.34,-2.3424,-2.3439,-2.3462,-2.3494,-2.3521,-2.3527,-2.3537,-2.3541,-2.3548,-2.3519,-2.3516,-2.3513,-2.3506,-2.3544,-2.3544,-2.3575,-2.3575,-2.3575]},{"header":{"parameterUnit":"m.s-1","parameterCategory":1,"la1":30.2991,"la2":30.254,"lo1":-89.0895,"lo2":-89.0444,"dy":0.0017,"dx":0.0017,"nx":28,"ny":28,"refTime":"2023-03-21T21:00:00:Z","depth":0,"parameterNumber":3,"parameterNumberName":"V-component_of_WINDS"},"data":[0,0,0,0,0,0,0,0,0,0,0,0,0,0,0,0,0,0,0,0,0,0,0,0,0,0,0,0,0,0,0,0,0,0,0,0,0,0,0,0,0,0,0,0,0,0,0,0,0,0,0,0,0,0,0,0,0,0,3.7252,3.7251,0,3.7131,3.713,3.7128,3.7072,3.7072,3.7072,3.7073,3.6939,3.6936,3.6932,0,0,0,0,0,0,0,0,0,0,0,0,0,3.743,3.7427,3.7252,3.7251,3.7249,3.7131,3.7129,3.7128,3.7072,3.7072,3.7072,3.7073,3.694,3.6936,3.6932,0,0,0,0,0,0,0,0,0,0,0,0,0,3.7335,3.7426,3.7253,3.7208,3.7202,3.7132,3.7129,3.7127,3.7072,3.7072,3.7072,3.7073,3.6942,3.6936,3.6931,3.6893,0,0,3.6914,3.6912,0,0,0,0,0,0,0,0,3.734,3.7328,3.7216,3.7211,3.7205,3.7117,3.7143,3.7048,3.7072,3.7121,3.7073,3.7073,3.6998,3.6988,3.6964,3.6887,3.6881,3.6914,3.691,3.6908,3.6906,0,0,0,0,0,0,0,3.7347,3.7333,3.7204,3.7214,3.7207,3.7191,3.7178,3.7125,3.7059,3.7117,3.7113,3.71,3.6994,3.6969,3.696,3.6879,3.6914,3.6909,3.6906,3.6903,3.6767,3.6767,0,0,0,0,0,0,3.7362,3.7339,3.7208,3.72,3.7275,3.7188,3.7173,3.7145,3.706,3.7047,3.71,3.7097,3.6979,3.6967,3.6956,3.6907,3.6908,3.6903,3.69,3.6768,3.6767,3.6767,0,0,0,0,0,0,3.7366,3.7351,3.7213,3.7269,3.725,3.7185,3.7153,3.7142,3.7117,3.7047,3.7034,3.7086,3.6978,3.6963,3.691,3.6902,3.69,3.6895,3.6768,3.6767,3.6767,3.681,0,0,0,0,0,0,3.7371,3.7353,3.7339,3.7269,3.7247,3.7172,3.7153,3.714,3.7109,3.7105,3.7031,3.7019,3.6977,3.6919,3.6905,3.6894,3.6891,3.6768,3.6768,3.6767,3.6809,3.6811,3.6812,0,0,0,0,0,3.7378,3.7353,3.7338,3.7323,3.7229,3.7171,3.7158,3.7114,3.7109,3.7093,3.7049,3.7021,3.6905,3.6914,3.6898,3.6885,3.6769,3.6768,3.6767,3.6808,3.681,3.6812,0,0,0,0,0,0,3.7419,3.7343,3.7326,3.7278,3.7232,3.7162,3.7141,3.7117,3.7069,3.7067,3.7011,3.6995,3.6947,3.691,3.6921,3.6845,3.6834,3.683,3.6871,3.6873,3.6875,3.6884,3.6887,0,0,0,0,0,3.7424,3.7386,3.732,3.7284,3.7262,3.7206,3.7179,3.7149,3.7098,3.7077,3.7028,3.6978,3.693,3.6899,3.6851,3.6804,3.6787,3.6787,3.6789,3.6791,3.6788,3.6762,3.6761,3.6764,3.6764,3.6764,0,0,3.7431,3.7384,3.7363,3.7291,3.7252,3.7213,3.719,3.7148,3.7117,3.707,3.7018,3.6981,3.692,3.6871,3.6846,3.6839,3.6784,3.679,3.6792,3.6788,3.6761,3.6761,3.6761,3.6764,3.6764,3.6764,0,0,3.7424,3.7385,3.7352,3.7315,3.7257,3.7221,3.7213,3.7148,3.7122,3.707,3.7035,3.6996,3.6915,3.6874,3.6843,3.6825,3.6798,3.681,3.682,3.6795,3.6795,3.6794,3.6789,3.6788,3.6808,3.6808,3.6808,0,3.7439,3.738,3.7337,3.7299,3.7269,3.7228,3.7194,3.7159,3.7087,3.7066,3.706,3.696,3.6916,3.6857,3.6854,3.6829,3.6818,3.6818,3.6799,3.6798,3.6797,3.6791,3.6789,3.681,3.681,3.6809,3.6809,0,3.7402,3.7362,3.7342,3.7279,3.7247,3.721,3.7161,3.7132,3.7106,3.707,3.7019,3.6965,3.6907,3.6891,3.6863,3.6829,3.6826,3.681,3.6798,3.6799,3.6793,3.679,3.6813,3.6812,3.6811,3.6811,0,0,3.7415,3.7333,3.7326,3.7298,3.7233,3.72,3.7163,3.711,3.7087,3.704,3.7006,3.694,3.6927,3.6891,3.6858,3.6837,3.6828,3.6823,3.6821,3.6827,3.6788,3.6801,3.6799,3.6811,3.681,3.6809,3.6794,0,3.74,3.7333,3.7295,3.7244,3.7207,3.717,3.7137,3.7093,3.7059,3.7021,3.6982,3.6937,3.6921,3.69,3.6877,3.6834,3.6819,3.6834,3.6777,3.6776,3.6794,3.6796,3.6808,3.6796,3.6791,3.679,3.679,0,3.7372,3.733,3.7277,3.722,3.7203,3.7174,3.7124,3.7088,3.7038,3.7015,3.6978,3.6947,3.6904,3.6897,3.6838,3.6849,3.6824,3.6799,3.6798,3.679,3.6783,3.6789,3.6791,3.6789,3.6785,3.6786,3.6786,0,3.7388,3.7318,3.7278,3.7255,3.7187,3.7168,3.7138,3.7089,3.706,3.7015,3.6996,3.6946,3.6918,3.6879,3.6835,3.6834,3.6781,3.6769,3.6759,3.6761,3.6749,3.675,3.6748,3.6733,3.6733,3.6733,3.6733,0,3.7375,3.7343,3.7285,3.726,3.7224,3.718,3.7145,3.7112,3.7069,3.7036,3.6999,3.6969,3.6912,3.6874,3.6839,3.6796,3.6783,3.6762,3.6753,3.6766,3.6769,3.6748,3.6748,3.6732,3.6732,3.6732,3.6733,0,3.7386,3.7345,3.7299,3.7241,3.7225,3.7202,3.715,3.7124,3.709,3.7049,3.7036,3.6982,3.6935,3.6888,3.6824,3.68,3.6759,3.6746,3.6777,3.6772,3.6766,3.6767,3.6749,3.6745,3.6733,3.6734,3.6734,0,3.738,3.7356,3.7296,3.7274,3.7246,3.7209,3.7181,3.7138,3.711,3.7053,3.7034,3.6986,3.6945,3.6873,3.6826,3.6778,3.6764,3.6761,3.6756,3.677,3.6764,3.6767,3.6764,3.6762,3.6763,3.6763,3.6763,0,3.7374,3.7356,3.7319,3.7276,3.7245,3.7208,3.7169,3.7152,3.7101,3.7071,3.7026,3.6995,3.6933,3.6885,3.6833,3.6799,3.6773,3.6766,3.6761,3.6773,3.6793,3.6783,3.6783,3.6766,3.6766,3.6765,3.6765,3.6765,3.7376,3.7354,3.731,3.7271,3.7238,3.7204,3.7178,3.7143,3.7105,3.7054,3.7029,3.6984,3.6936,3.6863,3.6831,3.6794,3.6786,3.6779,3.6777,3.6776,3.678,3.68,3.6784,3.6784,3.6784,3.6784,3.6783,0,3.7369,3.734,3.7305,3.7254,3.7224,3.7206,3.7163,3.7137,3.7099,3.7059,3.7021,3.697,3.6925,3.6877,3.6829,3.6808,3.6795,3.6797,3.6798,3.6791,3.6789,3.6799,3.6809,3.6809,3.6809,3.6809,3.6809,3.6809,3.7361,3.7324,3.7302,3.7248,3.7218,3.7177,3.7155,3.7123,3.7091,3.7037,3.7001,3.6971,3.6927,3.6876,3.6834,3.6821,3.6805,3.6811,3.6794,3.6793,3.6791,3.6789,3.6798,3.6807,3.6807,3.6799,3.6799,3.6799]}]]